When you browse on this site, cookies collect data to enhance your experience and personalize the content and advertising you see.
Visit our Privacy Policy to learn more. By continuing to use the site, you agree to this use of cookies and data.
  • In Sweden
  • List of Countries
  • For 7 days
  • Water Temperature
  • Satellite Maps
  • Weather Map
  • Weather Widgets
  • user-avatar
    Login

    Hourly Weather Bor

    Today, 18 November, Sunday

    Time Temperature Precipitation Wind Pressure Humidity
    00:00 +5°C° 0.5 mm 2 mps 668 mmHg 67%
    01:00 +5°C° 0.5 mm 2 mps 668 mmHg 69%
    02:00 +6°C° 0 mm 1 mps 668 mmHg 70%
    03:00 +6°C° 0.2 mm 1 mps 667 mmHg 71%
    04:00 +6°C° 0.2 mm 1 mps 667 mmHg 72%
    05:00 +6°C° 0.2 mm 1 mps 667 mmHg 73%
    06:00 +7°C° 0.1 mm 1 mps 667 mmHg 74%
    07:00 +7°C° 0.1 mm 1 mps 667 mmHg 76%
    08:00 +7°C° 0.1 mm 1 mps 667 mmHg 77%
    09:00 +9°C° 0 mm 1 mps 667 mmHg 75%
    10:00 +10°C° 0 mm 1 mps 667 mmHg 74%
    11:00 +11°C° 0 mm 1 mps 667 mmHg 72%
    12:00 +11°C° 0 mm 1 mps 667 mmHg 71%
    13:00 +12°C° 0 mm 1 mps 666 mmHg 69%
    14:00 +12°C° 0 mm 1 mps 666 mmHg 67%
    15:00 +11°C° 0 mm 1 mps 666 mmHg 69%
    16:00 +10°C° 0 mm 1 mps 665 mmHg 70%
    17:00 +9°C° 0 mm 1 mps 665 mmHg 72%
    18:00 +9°C° 0 mm 1 mps 664 mmHg 71%
    19:00 +8°C° 0 mm 2 mps 664 mmHg 70%
    20:00 +7°C° 0 mm 2 mps 664 mmHg 70%
    21:00 +7°C° 0 mm 2 mps 664 mmHg 68%
    22:00 +7°C° 0 mm 2 mps 664 mmHg 67%
    23:00 +7°C° 0 mm 2 mps 664 mmHg 66%

    Tomorrow, 19 November, Monday

    Time Temperature Precipitation Wind Pressure Humidity
    00:00 +7°C° 0 mm 2 mps 664 mmHg 64%
    01:00 +7°C° 0 mm 2 mps 664 mmHg 63%
    02:00 +7°C° 0 mm 3 mps 664 mmHg 62%
    03:00 +7°C° 0 mm 2 mps 664 mmHg 62%
    04:00 +7°C° 0 mm 2 mps 664 mmHg 62%
    05:00 +7°C° 0 mm 2 mps 664 mmHg 62%
    06:00 +7°C° 0 mm 2 mps 664 mmHg 60%
    07:00 +8°C° 0 mm 2 mps 664 mmHg 58%
    08:00 +9°C° 0 mm 2 mps 665 mmHg 56%
    09:00 +10°C° 0 mm 2 mps 665 mmHg 53%
    10:00 +12°C° 0 mm 2 mps 666 mmHg 50%
    11:00 +14°C° 0 mm 2 mps 666 mmHg 47%
    12:00 +14°C° 0 mm 2 mps 666 mmHg 44%
    13:00 +15°C° 0 mm 2 mps 666 mmHg 42%
    14:00 +15°C° 0 mm 2 mps 665 mmHg 39%
    15:00 +13°C° 0 mm 2 mps 665 mmHg 43%
    16:00 +12°C° 0 mm 2 mps 665 mmHg 47%
    17:00 +9°C° 0 mm 2 mps 664 mmHg 51%
    18:00 +9°C° 0 mm 2 mps 665 mmHg 52%
    19:00 +9°C° 0 mm 2 mps 665 mmHg 53%
    20:00 +8°C° 0 mm 2 mps 665 mmHg 54%
    21:00 +8°C° 0 mm 2 mps 665 mmHg 53%
    22:00 +8°C° 0 mm 2 mps 665 mmHg 53%
    23:00 +8°C° 0 mm 2 mps 665 mmHg 52%

    Day after tomorrow, 20 November, Tuesday

    Time Temperature Precipitation Wind Pressure Humidity
    00:00 +8°C° 0 mm 2 mps 666 mmHg 51%
    01:00 +9°C° 0 mm 1 mps 666 mmHg 50%
    02:00 +8°C° 0 mm 1 mps 666 mmHg 49%
    03:00 +8°C° 0 mm 1 mps 665 mmHg 49%
    04:00 +8°C° 0 mm 1 mps 665 mmHg 50%
    05:00 +7°C° 0 mm 1 mps 665 mmHg 50%
    06:00 +7°C° 0 mm 0 mps 666 mmHg 48%
    07:00 +8°C° 0 mm 0 mps 667 mmHg 45%
    08:00 +10°C° 0 mm 0 mps 667 mmHg 43%
    09:00 +11°C° 0 mm 0 mps 668 mmHg 41%
    10:00 +12°C° 0 mm 0 mps 668 mmHg 39%
    11:00 +14°C° 0 mm 0 mps 668 mmHg 37%
    12:00 +14°C° 0 mm 0 mps 668 mmHg 37%
    13:00 +15°C° 0 mm 1 mps 668 mmHg 36%
    14:00 +15°C° 0 mm 1 mps 667 mmHg 35%
    15:00 +14°C° 0 mm 1 mps 667 mmHg 39%
    16:00 +12°C° 0 mm 0 mps 667 mmHg 43%
    17:00 +10°C° 0 mm 0 mps 666 mmHg 47%
    18:00 +10°C° 0 mm 0 mps 666 mmHg 48%
    19:00 +9°C° 0 mm 0 mps 666 mmHg 48%
    20:00 +9°C° 0 mm 0 mps 666 mmHg 48%
    21:00 +9°C° 0 mm 0 mps 666 mmHg 48%
    22:00 +9°C° 0 mm 0 mps 666 mmHg 48%
    23:00 +9°C° 0 mm 0 mps 666 mmHg 47%

    21 November, Wednesday

    Time Temperature Precipitation Wind Pressure Humidity
    00:00 +8°C° 0 mm 0 mps 665 mmHg 47%
    01:00 +8°C° 0 mm 0 mps 665 mmHg 47%
    02:00 +8°C° 0 mm 0 mps 665 mmHg 47%
    03:00 +8°C° 0 mm 0 mps 664 mmHg 48%
    04:00 +7°C° 0 mm 0 mps 664 mmHg 48%
    05:00 +7°C° 0 mm 0 mps 664 mmHg 48%
    06:00 +8°C° 0 mm 0 mps 664 mmHg 48%
    07:00 +9°C° 0 mm 0 mps 665 mmHg 47%
    08:00 +10°C° 0 mm 0 mps 665 mmHg 46%
    09:00 +12°C° 0 mm 1 mps 665 mmHg 43%
    10:00 +14°C° 0 mm 1 mps 665 mmHg 40%
    11:00 +15°C° 0 mm 1 mps 665 mmHg 36%
    12:00 +15°C° 0 mm 1 mps 665 mmHg 36%
    13:00 +15°C° 0 mm 1 mps 665 mmHg 36%
    14:00 +15°C° 0 mm 1 mps 664 mmHg 36%
    15:00 +14°C° 0 mm 1 mps 664 mmHg 40%
    16:00 +13°C° 0 mm 1 mps 663 mmHg 45%
    17:00 +12°C° 0 mm 1 mps 663 mmHg 50%
    18:00 +12°C° 0 mm 1 mps 663 mmHg 50%
    19:00 +11°C° 0 mm 1 mps 663 mmHg 51%
    20:00 +10°C° 0 mm 2 mps 663 mmHg 52%
    21:00 +10°C° 0 mm 2 mps 663 mmHg 53%
    22:00 +10°C° 0 mm 2 mps 662 mmHg 55%
    23:00 +9°C° 0 mm 2 mps 662 mmHg 57%

    22 November, Thursday

    Time Temperature Precipitation Wind Pressure Humidity
    00:00 +10°C° 0.2 mm 1 mps 662 mmHg 59%
    01:00 +10°C° 0.2 mm 1 mps 662 mmHg 62%
    02:00 +9°C° 0.2 mm 1 mps 662 mmHg 65%
    03:00 +9°C° 0 mm 1 mps 662 mmHg 65%
    04:00 +9°C° 0 mm 1 mps 661 mmHg 66%
    05:00 +9°C° 0 mm 1 mps 661 mmHg 66%
    06:00 +9°C° 0 mm 1 mps 662 mmHg 65%
    07:00 +10°C° 0 mm 1 mps 662 mmHg 64%
    08:00 +10°C° 0 mm 1 mps 662 mmHg 63%
    09:00 +11°C° 0 mm 1 mps 662 mmHg 60%
    10:00 +12°C° 0 mm 1 mps 663 mmHg 56%
    11:00 +13°C° 0 mm 1 mps 663 mmHg 53%
    12:00 +14°C° 0 mm 1 mps 663 mmHg 51%
    13:00 +14°C° 0 mm 1 mps 662 mmHg 50%
    14:00 +14°C° 0 mm 1 mps 662 mmHg 49%
    15:00 +13°C° 0 mm 1 mps 662 mmHg 53%
    16:00 +12°C° 0 mm 1 mps 662 mmHg 58%
    17:00 +11°C° 0 mm 1 mps 662 mmHg 62%
    18:00 +10°C° 0 mm 1 mps 662 mmHg 64%
    19:00 +10°C° 0 mm 1 mps 662 mmHg 65%
    20:00 +9°C° 0 mm 1 mps 662 mmHg 66%
    21:00 +9°C° 0 mm 1 mps 662 mmHg 67%
    22:00 +8°C° 0 mm 1 mps 662 mmHg 67%
    23:00 +8°C° 0 mm 1 mps 662 mmHg 68%

    23 November, Friday

    Time Temperature Precipitation Wind Pressure Humidity
    00:00 +7°C° 0 mm 1 mps 661 mmHg 69%
    01:00 +6°C° 0 mm 0 mps 661 mmHg 70%
    02:00 +6°C° 0 mm 0 mps 661 mmHg 71%
    03:00 +5°C° 0 mm 0 mps 661 mmHg 71%
    04:00 +5°C° 0 mm 0 mps 661 mmHg 70%
    05:00 +5°C° 0 mm 0 mps 661 mmHg 70%
    06:00 +6°C° 0 mm 0 mps 662 mmHg 66%
    07:00 +7°C° 0 mm 0 mps 662 mmHg 62%
    08:00 +8°C° 0 mm 0 mps 663 mmHg 58%
    09:00 +9°C° 0 mm 0 mps 663 mmHg 57%
    10:00 +11°C° 0 mm 1 mps 663 mmHg 55%
    11:00 +12°C° 0 mm 1 mps 663 mmHg 53%
    12:00 +12°C° 0 mm 1 mps 663 mmHg 53%
    13:00 +12°C° 0 mm 1 mps 663 mmHg 54%
    14:00 +12°C° 0 mm 1 mps 662 mmHg 54%
    15:00 +11°C° 0.1 mm 1 mps 662 mmHg 58%
    16:00 +11°C° 0.1 mm 1 mps 662 mmHg 62%
    17:00 +10°C° 0.1 mm 1 mps 662 mmHg 67%
    18:00 +9°C° 0 mm 1 mps 662 mmHg 69%
    19:00 +9°C° 0 mm 1 mps 663 mmHg 72%
    20:00 +9°C° 0 mm 1 mps 663 mmHg 75%
    21:00 +8°C° 0 mm 1 mps 663 mmHg 77%
    22:00 +8°C° 0 mm 1 mps 663 mmHg 78%
    23:00 +8°C° 0 mm 1 mps 663 mmHg 80%
    Show more